Home > Weather > Ras al-Khaimah > Past weeks

Flag for United Arab Emirates Weather for the Past 2 Weeks in Ras al-Khaimah, Ras al-Khaimah, United Arab Emirates

Now
63 °F

Clear.


Feels Like: 63 °F
Forecast: 54 / 75 °F
Wind: No wind

Location: Ras Al Khaimah International Airport

Current Time: Feb 13, 2016 at 10:04:07 PM

Latest Report: Feb 13, 2016 at 9:00 PM


Visibility: 10 mi

Pressure: 30.09 "Hg

Humidity: 68%

Dew point: 52 °F

Location of Ras al-KhaimahLocation

Historic Weather in Ras al-Khaimah — Graph

°F

Ras al-Khaimah Temperature Yesterday

Maximum temperature yesterday: 73 °F (at 12:00 PM)
Minimum temperature yesterday: 57 °F (at 4:00 AM)
Average temperature yesterday: 65 °F

High & Low Weather Summary for the Past Weeks

 TemperatureHumidityPressure
High82 °F (Feb 1, 3:00 PM)94% (Feb 7, 7:00 AM)30.27 "Hg (Feb 7, 7:00 AM)
Low48 °F (Jan 31, 5:00 AM)15% (Feb 6, 3:00 PM)29.92 "Hg (Feb 11, 3:00 PM)
Average63 °F59%30.10 "Hg
* Reported Jan 29 9:00 PM — Feb 13 9:00 PM, Ras al-Khaimah, Weather by CustomWeather, © 2016

Note: Actual official high and low records may vary slightly from our data, if they occured in-between our weather recording intervals... More about our weather records

Advertising

Ras al-Khaimah Weather History for the Previous 24 Hours

 ConditionsComfort  
Time TempWeatherWind HumidityBarometerVisibility
9:00 PM
Sat, Feb 13
63 °FClear.No wind68%30.09 "Hg10 mi
8:00 PM66 °FPassing clouds.3 mph68%30.07 "HgN/A
7:00 PM68 °FPassing clouds.5 mph60%30.07 "HgN/A
6:00 PM70 °FPassing clouds.9 mph57%30.04 "HgN/A
5:00 PM72 °FPassing clouds.9 mph50%30.04 "HgN/A
4:00 PM73 °FPassing clouds.10 mph44%30.04 "HgN/A
3:00 PM73 °FPassing clouds.10 mph47%30.04 "HgN/A
2:00 PM73 °FPassing clouds.10 mph44%30.04 "HgN/A
1:00 PM73 °FPassing clouds.5 mph44%30.07 "HgN/A
12:00 PM72 °FSunny.5 mph47%30.09 "Hg10 mi
11:00 AM72 °FSunny.2 mph50%30.12 "Hg10 mi
10:00 AM68 °FSunny.9 mph60%30.12 "Hg10 mi
9:00 AM64 °FSunny.9 mph64%30.12 "Hg10 mi
8:00 AM57 °FSunny.3 mph77%30.09 "Hg10 mi
7:00 AM54 °FPassing clouds.5 mph82%30.09 "HgN/A
6:00 AM54 °FPassing clouds.5 mph82%30.07 "HgN/A
5:00 AM59 °FPassing clouds.7 mph72%30.07 "HgN/A
4:00 AM59 °FPassing clouds.9 mph72%30.07 "HgN/A
3:00 AM57 °FPassing clouds.9 mph72%30.07 "HgN/A
2:00 AM55 °FPassing clouds.6 mph77%30.07 "HgN/A
1:00 AM57 °FClear.7 mph67%30.07 "Hg10 mi
12:00 AM57 °FClear.5 mph67%30.09 "Hg10 mi
11:00 PM
Fri, Feb 12
59 °FClear.6 mph63%30.09 "Hg10 mi
10:00 PM61 °FClear.5 mph63%30.09 "Hg10 mi
Weather by CustomWeather, © 2016

See weather overviewHow to use our weather pages